DW6873 Weather Reports


Display with metric or nautical units.
time (UTC)temp
F
wind
direction
speed
MPH
gust
MPH
rain 1hr
in
rain 24hr
in
rain mn
in
humidity
%
barometer
mb
20260905083054 70 117 0.0 1.0 0.00 0.00 0.00 80 1006.0
20260905081558 70 131 0.0 1.0 0.00 0.00 0.00 79 1006.1
20260905080054 70 154 0.0 0.0 0.00 0.00 0.00 79 1006.2
20260905074548 70 129 0.0 0.0 0.00 0.00 0.00 79 1006.4
20260905073043 70 142 0.0 0.0 0.00 0.00 0.00 78 1006.3
20260905071542 70 117 0.0 1.0 0.00 0.00 0.00 78 1006.3
20260905070039 70 142 0.0 1.0 0.00 0.00 0.00 79 1006.5
20260905064536 70 124 0.0 0.0 0.00 0.00 0.00 79 1006.7
20260905063035 70 86 0.0 1.0 0.00 0.00 0.00 80 1006.7
20260905061534 70 146 0.0 0.0 0.00 0.00 0.00 80 1006.8
20260905060044 70 91 0.0 0.0 0.00 0.00 0.00 81 1006.8
20260905054502 70 126 0.0 0.0 0.00 0.00 0.00 81 1006.8
20260905053100 71 105 0.0 1.0 0.00 0.00 0.00 80 1007.0
20260905051557 71 106 0.0 1.0 0.00 0.00 0.00 79 1007.0
20260905050105 71 112 0.0 1.0 0.00 0.00 0.00 78 1007.1
20260905044553 72 147 0.0 1.0 0.00 0.00 0.00 77 1007.1
20260905043050 72 98 0.0 0.0 0.00 0.00 0.00 76 1007.3
20260905041544 72 123 0.0 0.0 0.00 0.00 0.00 74 1007.6
20260905040041 72 131 0.0 0.0 0.00 0.00 0.00 72 1007.7
20260905034539 73 125 0.0 0.0 0.00 0.00 0.00 70 1007.9
20260905033037 73 131 0.0 0.0 0.00 0.00 0.00 68 1007.9
20260905031538 74 150 0.0 0.0 0.00 0.00 0.00 66 1007.8
20260905030029 74 146 0.0 0.0 0.00 0.00 0.00 65 1008.0
20260905024532 75 123 0.0 1.0 0.00 0.00 0.00 63 1007.9
20260905023030 75 136 0.0 1.0 0.00 0.00 0.00 61 1007.9
20260905021522 76 134 0.0 1.0 0.00 0.00 0.00 59 1007.7
20260905020021 77 184 0.0 0.0 0.00 0.00 0.00 55 1007.5
20260905014520 78 139 0.0 1.0 0.00 0.00 0.00 51 1007.3
20260905013019 79 100 0.0 0.0 0.00 0.00 0.00 47 1007.3
20260905011517 79 134 0.0 0.0 0.00 0.00 0.00 45 1007.1
20260905010016 79 119 0.0 0.0 0.00 0.00 0.00 56 1007.3
20260905004516 81 132 0.0 0.0 0.00 0.00 0.00 57 1007.1
20260905003027 83 122 0.0 0.0 0.00 0.00 0.00 53 1007.1
20260905001514 85 91 0.0 0.0 0.00 0.00 0.00 49 1007.0
20260905000057 86 113 0.0 1.0 0.00 0.00 0.00 46 1007.0
20260904234543 88 126 0.0 0.0 0.00 0.00 0.00 38 1006.8
20260904233041 89 142 0.0 1.0 0.00 0.00 0.00 31 1006.8
20260904231548 89 124 0.0 2.0 0.00 0.00 0.00 30 1006.6
20260904230054 89 126 0.0 3.0 0.00 0.00 0.00 34 1006.7
20260904224537 90 128 0.0 1.0 0.00 0.00 0.00 33 1006.7
20260904223035 89 105 0.0 1.0 0.00 0.00 0.00 34 1006.8
20260904221532 90 127 0.0 1.0 0.00 0.00 0.00 36 1006.9
20260904220032 90 133 0.0 2.0 0.00 0.00 0.00 36 1006.9
20260904214533 90 124 0.0 1.0 0.00 0.00 0.00 36 1007.0
20260904213027 89 107 0.0 1.0 0.00 0.00 0.00 38 1007.0
20260904211527 89 117 0.0 1.0 0.00 0.00 0.00 38 1007.2
20260904210031 89 110 0.0 1.0 0.00 0.00 0.00 36 1007.2
20260904204526 89 98 0.0 1.0 0.00 0.00 0.00 36 1007.4
20260904203057 89 138 0.0 4.0 0.00 0.00 0.00 36 1007.6
20260904201558 89 127 0.0 1.0 0.00 0.00 0.00 34 1007.4
20260904200059 89 96 0.0 1.0 0.00 0.00 0.00 35 1007.6
20260904194550 88 101 0.0 1.0 0.00 0.00 0.00 37 1008.0
20260904193045 88 72 0.0 2.0 0.00 0.00 0.00 40 1008.4
20260904191543 86 119 0.0 9.0 0.00 0.00 0.00 40 1008.7
20260904190041 86 157 0.0 2.0 0.00 0.00 0.00 39 1009.0
20260904184603 87 122 0.0 3.0 0.00 0.00 0.00 39 1009.1
20260904183041 86 105 0.0 3.0 0.00 0.00 0.00 40 1009.3
20260904181535 85 161 0.0 5.0 0.00 0.00 0.00 44 1009.4
20260904180028 84 162 0.0 1.0 0.00 0.00 0.00 46 1009.8
20260904174557 83 134 0.0 1.0 0.00 0.00 0.00 47 1010.2
20260904173022 82 66 0.0 0.0 0.00 0.00 0.00 55 1010.3
20260904171519 80 92 0.0 0.0 0.00 0.00 0.00 59 1010.2
20260904170049 79 141 0.0 0.0 0.00 0.00 0.00 61 1010.4
20260904164541 78 87 0.0 0.0 0.00 0.00 0.00 67 1010.2
20260904163049 76 146 0.0 0.0 0.00 0.00 0.00 69 1010.0
20260904161533 75 82 0.0 0.0 0.00 0.00 0.00 72 1010.0
20260904160029 73 87 0.0 0.0 0.00 0.00 0.00 79 1010.0
20260904154524 71 82 0.0 1.0 0.00 0.00 0.00 88 1010.1
20260904153107 68 72 0.0 0.0 0.00 0.00 0.00 98 1010.2
20260904151549 67 94 0.0 0.0 0.00 0.00 0.00 98 1010.3
20260904150041 65 103 0.0 0.0 0.00 0.00 0.00 98 1010.3
20260904144542 65 103 0.0 0.0 0.00 0.00 0.00 98 1010.4
20260904143038 64 97 0.0 0.0 0.00 0.00 0.00 98 1010.6
20260904141536 63 80 0.0 0.0 0.00 0.00 0.00 98 1010.7
20260904140030 62 75 0.0 0.0 0.00 0.00 0.00 98 1010.7
20260904134528 61 67 0.0 0.0 0.00 0.00 0.00 98 1010.7
20260904133025 60 50 0.0 0.0 0.00 0.00 0.00 98 1010.7
20260904131524 59 64 0.0 0.0 0.00 0.00 0.00 98 1010.7
20260904130020 57 22 0.0 0.0 0.00 0.00 0.00 98 1010.7
20260904124523 0 0.0 0.0 0.00 0.00 0.00 1010.6
20260904123011 0 0.0 0.0 0.00 0.00 0.00 1010.5
20260904121510 0 0.0 0.0 0.00 0.00 0.00 1010.4
20260904120112 0 0.0 0.0 0.00 0.00 0.00 1010.6
20260904114532 0 0.0 0.0 0.00 0.00 0.00 1010.7
20260904113030 0 0.0 0.0 0.00 0.00 0.00 1010.4
20260904111520 0 0.0 0.0 0.00 0.00 0.00 1010.5
20260904110016 0 0.0 0.0 0.00 0.00 0.00 1010.5
20260904104512 0 0.0 0.0 0.00 0.00 0.00 1010.6
20260904103007 0 0.0 0.0 0.00 0.00 0.00 1010.6
20260904101500 0 0.0 0.0 0.00 0.00 0.00 1010.4
20260904100059 51 30 0.0 0.0 0.00 0.00 0.00 97 1010.3
20260904094602 51 32 0.0 0.0 0.00 0.00 0.00 98 1010.0
20260904093100 52 31 0.0 0.0 0.00 0.00 0.00 98 1009.6
20260904091551 52 32 0.0 0.0 0.00 0.00 0.00 98 1009.5
20260904090050 53 31 0.0 0.0 0.00 0.00 0.00 98 1009.2
20260904084550 54 32 0.0 0.0 0.00 0.00 0.00 98 1008.9